Airfield :
LOGIN :

Register | Disclaimer

   EN    FR    IT 

 










Legend :    VFR   Marginal VFR   IFR   Intensive IFR   Very Intensive IFR
Visi :
Ceiling :
>= 8 km
>= 3000ft
5 to 8 km
1000 to 3000 ft
1500m to 5 km
500 to 1000 ft
800 to 1500m
200 to 500 ft
< 800m
< 200 ft
Symbols :   Thunderstorms  Fog  Heavy snow  Heavy precipitations  Wind > 20 kt
SIGMETs :     Misc.  Thunderstorms  Icing  Turbulence  Mountain Waves  Volcanic Ashes







- Airport Elevation : 22 ft
- IATA code : SKG


LGTS - Thessaloniki

CURRENT METAR :
  • 141650Z 28008KT 9999 FEW025 17/07 Q1022 NOSIG

EXPIRED METARs :
  • 141620Z 21004KT 9999 FEW025 15/07 Q1022 NOSIG
  • 141550Z 21005KT 9999 FEW025 15/07 Q1022 NOSIG
  • 141520Z 19004KT 9999 FEW025 16/06 Q1022 NOSIG
  • 141450Z VRB03KT 9999 FEW025 17/06 Q1022 NOSIG
  • 141420Z VRB02KT 9999 FEW025 18/05 Q1022 NOSIG

TAF TAF LGTS
Valid from the 14 at 12:00 until the 15 at 12:00 UTC


141100Z 1412/1512 VRB03KT 9999 SCT030
BECMG 1420/1422 35015KT
TEMPO 1503/1510 35015G25KT
No reported NOTAMs for that airfield.



MET'MAP, your aeronautical weather chart ! - Copyright ORBIFLY December 2007 - Disclaimer

ORBIFLY MET'MAP TEAM :

Programming & Development : Alexandra Zaïnal
Concept & Development : Baudouin d'Aumeries
Co-Development & Prog : Marc-Olivier Méhu
Technical & hardware support : Manuel Goepfert

Contact : metmap@orbifly.com




SOURCES & CREDITS :

   NOAA